Back to catalog

FREGAT DEB

TANK

AliveLEO
NORAD 41108·DEBRIS·🇷🇺 Russia

Launched Dec 11, 2015 from Baikonur Cosmodrome

Loading…

Next Passes (next 24 hours)

TLE

FreshSource: Space-Track

Epoch: Sep 14, 2026, 15:15 UTC

1 41108U 15074D   26257.63553465  .00048066  66582-5  54767-3 0  9998
2 41108  50.2788 108.8086 1015301 205.7151 148.9739 13.69854314462163

Track FREGAT DEB in real time with AllMySat

Download on the App Store